STARLINK-34577, 64719

Orbit data source: Space-Track

STARLINK-34577, 64719 is a payload satellite owned by SpaceX/Seattle (US) in LEO that was launched on Sat, 28 Jun 2025 UTC via an FALCON 9 launch vehicle from the Air Force Western Test Range (AFWTR). Payload-class satellites include a variety of spacecraft equipped with specific instruments for various scientific and technological missions. These include communications satellites like Starlink; space stations such as the ISS; scientific satellites like the Hubble; Earth observation satellites from companies like Planet Labs, Umbra, and HawkEye 360; GPS; miniature CubeSats for education and research; and military/defense satellites.

Loading next visibility...
Identifier
64719, 2025-142Z
Orbit
LEO
Country
Flag of USUS
Related business
Manufacturer
SpaceX/Seattle
Mission
Operational Commercial Communications
Bus & Motor
STARLINK V2MO, Unknown motor
Mass
575 kg wet, ~530 kg dry
Launch date (UTC)
2025-06-28 (11 months ago)
Launch vehicle
FALCON 9
Launch site
Air Force Western Test Range (AFWTR)
Object type
Payload
Rocket body
Debris
Shape & HBR
Box + 2 Pan, 17.7 m
Radar Cross Section
36.964 m², Large (>1 m²)

Expand to show TLE details & history
Last TLE update: 9 hours ago

TLE from 9 hours ago
0 STARLINK-34577
1 64719U 25142Z   26145.35880764  .00002541  00000-0  22064-3 0  9999
2 64719  70.0001 121.1684 0004024 264.7163  95.3537 14.98336277 50972
Epoch: 2026-05-25T08:36Z
TLE epoch observation values (Epoch: 2026-05-25T08:36:40.980Z)
Latitude
Longitude
109.04991°
Altitude
574.722 km
Speed
7.574 km/s
True Right ascension
08h 04m 40s
True Declination
0° 00' 00"
Sunlit
Object was in daylight at epoch
Visualization orbit readout
Latitude
Unknown
Longitude
Unknown
Altitude
Unknown
Speed
Unknown
Apparent Right ascension
Unknown
Apparent Declination
Unknown
Sunlit
N/A
Visualization observer readout
Local Sidereal Time
03:10:45
Azimuth
Unknown
Elevation
Unknown
Doppler factor
Unknown
Orbital elements
Apogee altitude
572.781 km
Perigee altitude
567.189 km
Semi-major axis
6,948.122 km
Eccentricity
0.0004
Inclination
70.0001°
RAAN
121.1684°
Arg. of periapsis
264.7163°
True anomaly
95.39961°
Mean anomaly
95.3537°
Eccentric anomaly
95.37665°
Mean motion
3.7475 °/min
Orbital period
96.06 mins
BSTAR
0.00022064
Loading maneuver chart data...
Computing Atmospheric mass density...
Loading historical data...
Loading historical data...
Loading historical data...
Loading historical data...
Loading historical data...
Loading historical data...
Loading historical data...

Documentation

Showing up to 5 results
|